TimeMST,TemperatureF,Dew PointF,Humidity,Sea Level PressureIn,VisibilityMPH,Wind Direction,Wind SpeedMPH,Gust SpeedMPH,PrecipitationIn,Events,Conditions,WindDirDegrees,DateUTC
12:53 AM,26.1,21.0,81,29.96,10.0,Calm,Calm,-,N/A,,Overcast,0,2014-02-03 07:53:00
1:53 AM,27.0,19.9,75,29.93,10.0,NE,4.6,-,N/A,,Overcast,40,2014-02-03 08:53:00
2:53 AM,26.1,19.9,78,29.92,10.0,Calm,Calm,-,N/A,,Overcast,0,2014-02-03 09:53:00
3:53 AM,26.1,21.0,81,29.91,10.0,Calm,Calm,-,N/A,,Overcast,0,2014-02-03 10:53:00
4:53 AM,27.0,21.0,78,29.91,10.0,Calm,Calm,-,N/A,,Overcast,0,2014-02-03 11:53:00
5:53 AM,27.0,21.9,81,29.92,10.0,Calm,Calm,-,N/A,,Overcast,0,2014-02-03 12:53:00
6:53 AM,26.1,21.9,84,29.92,10.0,Calm,Calm,-,N/A,,Overcast,0,2014-02-03 13:53:00
7:53 AM,24.1,21.0,88,29.94,10.0,NE,3.5,-,N/A,,Overcast,50,2014-02-03 14:53:00
8:53 AM,27.0,23.0,85,29.95,10.0,Calm,Calm,-,N/A,,Overcast,0,2014-02-03 15:53:00
9:43 AM,30.0,25.0,82,29.91,2.5,Calm,Calm,-,0.00,Snow,Light Snow,0,2014-02-03 16:43:00
9:53 AM,30.0,25.0,82,29.94,3.0,Calm,Calm,-,0.00,Snow,Light Snow,0,2014-02-03 16:53:00
10:44 AM,30.0,26.1,85,29.90,2.5,SSW,3.5,-,0.00,Snow,Light Snow,200,2014-02-03 17:44:00
10:46 AM,30.0,27.0,88,29.90,1.8,SW,3.5,-,0.00,Snow,Light Snow,220,2014-02-03 17:46:00
10:53 AM,30.0,27.0,88,29.93,1.8,Calm,Calm,-,0.00,Snow,Light Snow,0,2014-02-03 17:53:00
10:56 AM,30.0,27.0,88,29.90,2.5,SSW,3.5,-,0.00,Snow,Light Snow,210,2014-02-03 17:56:00
11:04 AM,30.0,27.0,88,29.89,3.0,Calm,Calm,-,0.00,Snow,Light Snow,0,2014-02-03 18:04:00
11:11 AM,30.9,28.0,89,29.89,2.0,SSW,3.5,-,0.00,Snow,Light Snow,200,2014-02-03 18:11:00
11:19 AM,30.0,27.0,88,29.89,1.8,SSW,4.6,-,0.00,Snow,Light Snow,210,2014-02-03 18:19:00
11:22 AM,30.9,28.0,89,29.89,2.5,SW,4.6,-,0.00,Snow,Light Snow,220,2014-02-03 18:22:00
11:28 AM,30.9,28.0,89,29.88,5.0,SW,5.8,-,0.00,Snow,Light Snow,220,2014-02-03 18:28:00
11:53 AM,32.0,27.0,82,29.88,8.0,Calm,Calm,-,0.00,Snow,Light Snow,0,2014-02-03 18:53:00
12:53 PM,34.0,28.0,79,29.83,5.0,South,3.5,-,0.00,Snow,Light Snow,170,2014-02-03 19:53:00
1:53 PM,35.1,25.0,67,29.79,10.0,Variable,4.6,-,0.00,,Overcast,0,2014-02-03 20:53:00
2:53 PM,34.0,26.1,73,29.78,10.0,WNW,6.9,-,N/A,,Overcast,290,2014-02-03 21:53:00
3:53 PM,35.1,23.0,61,29.78,10.0,Calm,Calm,-,N/A,,Overcast,0,2014-02-03 22:53:00
4:53 PM,32.0,27.0,82,29.79,10.0,WNW,6.9,-,0.00,,Overcast,290,2014-02-03 23:53:00
5:53 PM,30.9,27.0,85,29.80,4.0,North,-9999.0,-,0.00,Snow,Light Snow,0,2014-02-04 00:53:00
6:53 PM,30.0,27.0,88,29.81,3.0,Calm,Calm,-,0.00,Snow,Light Snow,0,2014-02-04 01:53:00
7:42 PM,28.9,28.0,96,29.80,3.0,Calm,Calm,-,0.00,Snow,Light Snow,0,2014-02-04 02:42:00
7:53 PM,28.9,28.0,96,29.83,3.0,Calm,Calm,-,0.00,Snow,Light Snow,0,2014-02-04 02:53:00
8:07 PM,28.9,28.0,96,29.80,2.5,Calm,Calm,-,0.00,Snow,Light Snow,0,2014-02-04 03:07:00
8:16 PM,28.9,28.0,96,29.79,4.0,ESE,3.5,-,0.00,Snow,Light Snow,110,2014-02-04 03:16:00
8:51 PM,28.4,28.4,100,29.80,2.0,Calm,Calm,-,0.01,Snow,Light Snow,0,2014-02-04 03:51:00
8:53 PM,28.9,28.0,96,29.82,2.0,Calm,Calm,-,0.01,Snow,Light Snow,0,2014-02-04 03:53:00
9:08 PM,28.9,27.0,92,29.80,2.5,Calm,Calm,-,0.00,Snow,Light Snow,0,2014-02-04 04:08:00
9:21 PM,28.9,28.0,96,29.80,1.8,Calm,Calm,-,0.00,Snow,Light Snow,0,2014-02-04 04:21:00
9:37 PM,28.9,28.0,96,29.80,2.5,Calm,Calm,-,0.01,Snow,Light Snow,0,2014-02-04 04:37:00
9:48 PM,28.4,28.4,100,29.80,2.0,Calm,Calm,-,0.01,Snow,Light Snow,0,2014-02-04 04:48:00
9:53 PM,28.9,28.0,96,29.81,2.5,Calm,Calm,-,0.01,Snow,Light Snow,0,2014-02-04 04:53:00
10:10 PM,28.9,28.0,96,29.80,2.5,Calm,Calm,-,0.00,Snow,Light Snow,0,2014-02-04 05:10:00
10:21 PM,28.9,28.0,96,29.79,4.0,Calm,Calm,-,0.00,Snow,Light Snow,0,2014-02-04 05:21:00
10:29 PM,28.9,28.0,96,29.79,2.5,ENE,3.5,-,0.00,Snow,Light Snow,70,2014-02-04 05:29:00
10:53 PM,28.9,27.0,92,29.80,4.0,NE,3.5,-,0.01,Snow,Light Snow,40,2014-02-04 05:53:00
11:12 PM,28.9,27.0,92,29.79,5.0,Calm,Calm,-,0.00,Snow,Light Snow,0,2014-02-04 06:12:00
11:53 PM,28.9,28.0,96,29.79,4.0,Calm,Calm,-,0.00,Snow,Light Snow,0,2014-02-04 06:53:00